This is the latest recevied weather packets stored in our database for station/object OM6ACB-6. If no packets are shown the sender has not sent any weather packets the latest 10 day(s).
| Time | Temp. | Humidity | Pressure | Rain* | Wind** | Luminosity | Snow |
|---|---|---|---|---|---|---|---|
| 1788619575 | 24.44° C | 20% | 1022.7 hPa | 0 mm | - | - | - |
| 1788618995 | 25° C | 20% | 1022.9 hPa | 0 mm | - | - | - |
| 1788618374 | 25° C | 20% | 1022.8 hPa | 0 mm | - | - | - |
| 1788617774 | 23.33° C | 21% | 1022.6 hPa | 0 mm | - | - | - |
| 1788617174 | 23.89° C | 21% | 1022.7 hPa | 0 mm | - | - | - |
| 1788616573 | 21.67° C | 22% | 1022.5 hPa | 0 mm | - | - | - |
| 1788615973 | 23.89° C | 21% | 1022.8 hPa | 0 mm | - | - | - |
| 1788615373 | 21.11° C | 22% | 1022.4 hPa | 0 mm | - | - | - |
| 1788614775 | 21.67° C | 22% | 1022.4 hPa | 0 mm | - | - | - |
| 1788614172 | 21.67° C | 22% | 1022.3 hPa | 0 mm | - | - | - |
| 1788613572 | 22.78° C | 21% | 1022.6 hPa | 0 mm | - | - | - |
| 1788612971 | 21.67° C | 22% | 1022.5 hPa | 0 mm | - | - | - |
| 1788612371 | 23.89° C | 21% | 1022.7 hPa | 0 mm | - | - | - |
| 1788611771 | 23.89° C | 21% | 1022.6 hPa | 0 mm | - | - | - |
| 1788611171 | 22.22° C | 21% | 1022.5 hPa | 0 mm | - | - | - |
| 1788610570 | 24.44° C | 20% | 1022.8 hPa | 0 mm | - | - | - |
| 1788609970 | 25° C | 20% | 1022.9 hPa | 0 mm | - | - | - |
| 1788609370 | 23.33° C | 21% | 1022.5 hPa | 0 mm | - | - | - |
| 1788608769 | 22.78° C | 21% | 1022.7 hPa | 0 mm | - | - | - |
| 1788608169 | 23.33° C | 21% | 1022.7 hPa | 0 mm | - | - | - |
| 1788607569 | 22.22° C | 22% | 1022.5 hPa | 0 mm | - | - | - |
| 1788606969 | 22.78° C | 21% | 1022.7 hPa | 0 mm | - | - | - |
| 1788606368 | 22.22° C | 21% | 1022.8 hPa | 0 mm | - | - | - |
| 1788605768 | 22.22° C | 21% | 1022.7 hPa | 0 mm | - | - | - |
| 1788605168 | 22.78° C | 21% | 1022.7 hPa | 0 mm | - | - | - |
* Rain latest hour (hover to see other rain measurements)
** Current wind speed in m/s (hover to see current wind gust speed)